Location: Acts Church of Fort Worth
(32.6786°N, 97.2668°W)
Time: 21:43:59
(UTC+00:00)

Okean 2 - Pass Details

Date: 18 January 2026
Orbit: 515 x 525 km, 82.5° (Epoch: 10 February)

Event Time Altitude Azimuth Distance (km) Brightness Sun altitude
Exits shadow 11:49:14 75° 274° (W) 537 3.0 -21.1°
Maximum altitude 11:49:17 75° 265° (W) 536 3.0 -21.1°
Drops below altitude 10° 11:53:04 10° 180° (S) 1,735 6.0 -20.3°
Sets 11:55:12 0° 178° (S) 2,619 7.0 -19.9°
